Погода в Вельске

Погода в Вельске : погода сейчас, прогноз погоды и архив. Всё, что Вы хотите узнать о погоде в Вельске!

Поиск расширенной информации на нашем сайте:

Другие новости

Новости СМИ2

Главная страница сайта

Новости сайта

03.07.2017

Напоминаем, что на нашем специализированном сайте Метеоцентр.Азия вы можете получить высокодетализированные автоматические прогнозы погоды по пунктам России, СНГ и мира в авиационном формате (включающие направление и скорость ветра, видимость, явления погоды, количество и форму облачности, нижнюю и верхнюю границу облачности).


Погода в Вельске - сегодня

Время (UTC), дата Ветер
(°,м/с) 
Видим.   Явления Облачность Т
(°С)
Тd
(°С)
f(%) Тe
(°С)
Pmin
(гПа)
dP
(гПа)
Po
(мм)
O2
(г/м3)
Тmin Tmax R s Состояние
почвы
18 12.07.18 тихо ()   20000 м  {ливн. осадки}  9/5 600 м средняя, верхняя 
[Sc|Ac trans|Ci fib]
+18.8 +16.5 86 +30  1015.8  -0.4  754  281           
21 12.07.18 тихо ()   20000 м    9/0 средняя 
[Ac trans]
+17.2 +15.4 89 +26  1015.3  -0.5  754  282           
00 13.07.18 тихо ()   20000 м    9/0 средняя, верхняя 
[Ac trans|Ci fib]
+16.7 +12.9 78 +22  1014.7  -0.6  753  283           
03 13.07.18 тихо ()   20000 м    9/3 600 м средняя, верхняя 
[Cu hum|Ac trans|Ci fib]
+17.1 +13.8 81 +24  1014.7  753  283  +16.2        влажная 
06 13.07.18 010 (С) 20000 м    9/0 средняя, верхняя 
[Ac trans|Ci fib]
+23.5 +14.3 56 +31  1014  -0.5  753  276           
09 13.07.18 020 (С) 20000 м    8/5 600 м верхняя 
[Cu med, cong|Ci fib]
+25.5 +12.6 45 +30  1013.1  -0.8  752  275           
12 13.07.18 360 (С) 20000 м    9/6 600 м средняя, верхняя 
[Cu med, cong|Ac trans|Ci fib]
+25.6 +13.8 48 +32  1012.4  -0.7  752  274           
15 13.07.18 070 (В) 20000 м    9/3 600 м верхняя 
[Cu hum|Ci fib]
+26.3 +11.7 40 +30  1011.9  -0.5  751  274    +27.8       
18 13.07.18 тихо ()   20000 м    3/0 верхняя 
[Ci fib]
+20.3 +15.1 72 +29  1012.3  0.2  751  279           
21 13.07.18 тихо ()   20000 м    4/0 верхняя 
[Ci fib]
+15.3 +14.2 93 +23  1012.6  0.1  751  284           
00 14.07.18 тихо ()   10 км    8/0 средняя, верхняя 
[Ac trans|Ci fib]
+13.4 +12.6 95 +18  1012.3  -0.3  751  286           
03 14.07.18 тихо ()   20000 м    8/0 средняя, верхняя 
[Ac trans|Ci fib]
+17.1 +14.5 85 +25  1012.2  751  282  +13.3        влажная 
06 14.07.18 тихо ()   20000 м    9/0 средняя, верхняя 
[Ac trans|Cs]
+22.9 +14.6 59 +31  1011.5  -0.5  751  276           
09 14.07.18 150 (ЮВ) 20000 м    8/4 600 м верхняя 
[Cu med, cong|Cs]
+27.5 +10.1 34 +29  1011.1  -0.2  751  273           
12 14.07.18 020 (С) 20000 м    8/4 600 м верхняя 
[Cu med, cong|Ci fib]
+28.6 +9.6 31 +29  1010.1  -1  750  272           
18 14.07.18 тихо ()   20000 м    8/5 600 м верхняя 
[Cu med, cong|Ci fib]
+21.8 +14.2 62 +29  1009.7  0.1  749  277           
21 14.07.18 тихо ()   20000 м  в посл. час гроза{ливн. осадки}  9/6 300 м кучево-дожд., средняя, верхняя 
[Cb cap|Ac trans|Ci fib]
+20 +14.9 72 +29  1010.3  0.4  750  278           
03 15.07.18 250 (З) 10 км  слаб. ливневой дождь  10/10 420 м кучево-дожд. 
[Cb cap]
+17.5 +15.4 87 +28  1011.2  750  281        влажная 
15 15.07.18 350 (С) 2{10}  20000 м    8/6 500 м кучево-дожд., верхняя 
[Cb cap|Ci fib]
+21.1 +14.2 65 +28  1011.7  0.8  751  278    +26.3     
18 15.07.18 тихо ()   20000 м  {ливн. осадки}  3/0 верхняя 
[Ci fib]
+18.3 +15.2 82 +27  1011.9  751  280           
21 15.07.18 тихо ()   20000 м    ясно 
+15.1 +14.1 94 +22  1012.8  0.8  752  284           
00 16.07.18 тихо ()   4000 м  дымка  ясно 
+13.6 +12.9 96 +19  1013.3  0.4  752  286           
03 16.07.18 тихо ()   0500 м  туман  ?/?  
+15 +14.2 95 +22  1014.2  753  285  +12.8    0.0    влажная 
06 16.07.18 030 (СВ) 20000 м  {туман}  ясно 
+22.8 +17 70 +35  1014.4  0.5  753  276           
09 16.07.18 010 (С) 20000 м    3/3 600 м 
[Cu hum]
+26.8 +15.1 49 +36  1014  -0.3  753  273           
Время (UTC), дата Ветер
(°,м/с) 
Видим.   Явления Облачность Т
(°С)
Тd
(°С)
f(%) Тe
(°С)
Pmin
(гПа)
dP
(гПа)
Po
(мм)
O2
(г/м3)
Тmin Tmax R s Состояние
почвы

Для получения пояснительной информации подведите курсор к названию столбца.

ПОГОДА в Вельске - архив

Всё, что Вы хотите узнать о погоде в Вельске - удобно и подробно!

Выберите нужную дату (начиная с 1 января 2015* года) и нажмите кнопку "Найти".
Будут отображены архивные сводки погоды по пункту Вельск, начиная с указанной даты.


Отображать данные в формате CSV (для использования в таблицах Excel)


Внимание! Наш архив погоды предназначен исключительно для личного некоммерческого использования в познавательных целях. Если Вам необходимы официальные справки о состоянии погоды (для производственных, юридических, коммерческих и т.п. целей), обращайтесь в органы Росгидромета.

*Примечание: данная дата относится к архиву по метеостанциям СССР (Россия, СНГ, Балтия).
Архив по метеостанциям Зарубежной Европы и Азии (кроме Китая) хранится 10 дней, по другим регионам земного шара (Китай, Африка, Америка, Австралия, Океания) - 1 день.

Вельск - район местоположения метеостанции


Название, широта, долгота, высота метеостанции:
Вельск 61.1°ш. 42.1°д. 91 м над ур. моря [Российская Федерация]

Дополнительная информация

В oтличие oт бoльшинства пoгoдных сайтoв мы публикуем пoдрoбную метеoинфoрмацию в детальнoм прoфессиoнальнoм фoрмате.

Характеристики температуры и влажнoсти вoздуха измеряются на высoте 2 м в тени вдали oт зданий и деревьев.
Скoрoсть ветра измеряется на высoте 10 м (на урoвне рoста челoвека скoрoсть ветра ниже в 1.5-2 раза). Если метеoстанция нахoдится в гoрoде или в лесу, тo скoрoсть ветра занижена на 2-4 м/с пo сравнению с oткрытым местoм. Скoрoсть ветра над акватoриями крупных рек и oзёр, а также на вершинах хoлмoв на 2-5 м/с выше, чем в oбычных услoвиях.
Атмoсфернoе давление в разных тoчках местнoсти мoжет значительнo oтличаться oт давления на метеoстанции, в зависимoсти oт услoвий рельефа (при пoдъёме на 10 м давление пoнижается примернo на 1 мм рт.ст.).